Location: Potomac
(46.8816°N, 113.5795°W)
Time: 11:52:08
(UTC+00:00)

Gurwin Techsat 1B - Pass Details

Date: 30 June 2022
Orbit: 812 x 813 km, 98.8° (Epoch: 10 August)

Event Time Altitude Azimuth Distance (km) Brightness Sun altitude
Rises 10:48:11 0° 10° (N) 3,347 12.9 -7.9°
Reaches altitude 10° 10:50:35 10° 6° (N) 2,411 11.9 -7.6°
Maximum altitude 10:55:45 52° 291° (WNW) 1,002 9.0 -7.0°
Drops below altitude 10° 11:00:52 10° 216° (SW) 2,395 10.4 -6.4°
Enters shadow 11:01:33 - 214° (SW) 2,657 10.6 -6.3°
